Find Starlink 5999

NORAD ID: 56909 Int'l Des: 2023-083 Owner: SPXS Country: US Constellation: starlink operational
LEOCIRCULAR

現在のビュー

3D地球を読み込み中...

About Starlink 5999

Starlink 5999 (NORAD 56909) is a starlink constellation satellite (v1.5) launched Jun 12, 2023 by SPXS of US. It operates in LEO, CIRCULAR orbit with a mass of 305.00 kg.

Starlink 5999について

説明を読み込み中...

次回通過

Passes for default location (London). Set your location on the main map for personalized predictions.

高度履歴

Loading altitude history...

軌道要素

1 56909U 23083AK 26194.95309350 -.00000761 00000-0 -18117-4 0 9999
2 56909 43.0015 78.0333 0001522 264.7717 95.2961 15.27576816171214
Epoch: Jul 13, 2026 • Age: 19 hours

現在のステータス

高度 494.3 km
遠地点 / 近地点 N/A
速度 7.62 km/s
衛星直下点 -40.46°S, 174.73°E
打ち上げ日 Jun 12, 2023
運用期間 3 years
タイプ internet

技術仕様

分類 Payload
質量 305.00 kg
乾燥質量 290.00 kg
総質量 305.00 kg
長さ 0.20 m
直径 2.80 m
スパン 9.00 m
形状 Box + pan
製造者 SPXS
バスタイプ Starlink
フェーズステータス In Orbit
所有者/国 SPXS/US

Most Searched